RH
16 16 16 16 16 16 15 17 18 18 16 18 22 22 23 25 25 25 23 22 20 19 18 15 10 6 6 5 5 5 5 5 6 11 17 18 20 26 30 33 34 36 40 38 37 37 30 22 17 14 12 11 10 11 12 14 15 18 23 27 32 35 38 40 40 39 38 36 36 41 48 54 57 57 58 56 53 47 44 50 56 64 71 73 74 70 70 71 69 69 67 65 65 65 69 71 70
16 16 16 16 16 16 15 18 19 17 15 16 21 22 23 24 23 23 22 21 19 18 17 11 7 5 5 4 5 6 8 10 9 10 11 12 15 15 15 17 17 20 23 22 21 19 14 11 10 11 11 10 10 10 9 9 10 11 14 17 21 24 27 29 30 30 30 31 32 35 41 47 49 50 52 52 50 45 40 44 45 47 57 64 63 59 65 72 70 69 67 65 62 59 63 64 58
15 16 16 16 15 15 15 18 20 18 16 16 21 22 21 23 23 22 21 20 20 20 18 13 7 5 5 4 5 8 12 15 14 14 15 15 16 14 13 13 11 9 10 10 10 9 9 10 10 10 10 10 10 9 9 9 9 10 10 11 13 15 18 19 21 23 25 26 28 31 35 39 41 44 47 48 48 42 37 36 35 37 47 62 59 47 56 71 76 76 72 64 57 54 56 57 54
15 16 16 16 15 15 16 19 22 20 17 17 22 22 21 24 24 22 22 22 23 23 21 16 7 5 5 5 5 7 11 12 11 12 13 12 12 11 10 10 9 8 9 10 11 11 11 10 10 10 10 9 9 9 9 9 8 9 9 9 10 11 13 14 15 16 18 20 23 26 31 37 40 43 44 46 45 37 33 29 31 36 47 70 65 44 49 61 70 74 72 67 57 54 56 58 60
15 16 17 16 15 16 18 20 23 21 18 21 24 24 24 25 25 24 25 25 24 24 21 14 6 4 4 4 5 5 8 10 10 11 12 12 11 11 9 7 6 7 8 9 10 10 10 10 10 9 9 9 8 7 6 6 6 6 6 7 8 9 9 10 12 13 15 17 19 22 27 35 40 41 42 42 38 31 28 25 27 31 42 66 61 45 47 52 64 69 72 76 62 54 57 58 62
18 16 16 16 16 17 20 21 21 20 22 24 24 25 28 28 27 27 27 26 26 25 17 8 5 4 4 5 6 6 9 12 13 15 16 17 16 13 11 8 7 7 7 8 9 9 10 10 9 8 7 6 5 5 5 5 5 5 6 7 7 7 7 8 9 11 12 14 15 18 23 29 35 36 34 31 28 25 25 24 25 30 39 53 53 49 50 52 68 72 77 84 62 52 59 60 63
22 15 16 15 16 18 19 19 18 23 27 27 26 27 28 29 29 29 28 27 27 23 13 6 5 4 4 5 7 9 10 11 14 15 15 16 15 12 9 7 7 7 7 8 8 9 9 9 8 6 5 4 5 5 5 5 5 5 6 6 7 7 7 8 8 9 10 11 12 15 20 23 26 26 24 20 20 23 24 24 26 40 48 51 57 56 52 57 71 70 66 68 57 58 63 63 66
29 17 16 16 17 18 18 17 18 25 29 28 31 31 30 32 32 32 30 29 27 21 15 9 5 5 5 6 7 9 9 9 10 10 9 9 8 7 6 6 6 6 7 7 8 8 7 7 6 5 5 5 5 5 5 5 5 5 5 6 6 7 7 7 7 8 9 9 11 13 16 17 19 19 17 17 20 23 24 24 26 42 49 57 73 67 57 63 69 62 53 46 46 62 69 68 69
36 21 16 17 17 18 18 17 18 23 28 28 30 31 31 32 31 31 30 28 24 19 15 9 5 6 6 6 6 7 6 7 7 7 6 5 5 6 7 7 7 7 7 7 6 6 6 6 6 6 6 6 6 6 6 5 5 5 5 5 5 6 6 7 7 8 9 9 10 11 13 13 14 14 16 18 21 23 24 25 27 40 47 56 72 63 52 55 61 60 52 46 48 63 77 77 69
41 26 17 17 18 18 19 18 18 21 25 27 27 29 31 31 29 27 26 23 20 17 15 10 6 6 6 6 6 6 6 6 6 6 6 6 7 7 7 6 7 7 6 6 6 6 6 7 7 7 7 7 7 6 7 6 6 6 5 5 5 5 5 6 7 8 9 10 10 11 12 12 12 13 16 18 20 23 24 24 25 36 48 55 61 57 44 36 46 57 54 57 65 66 67 74 70
43 29 20 19 19 19 18 16 17 18 21 25 25 26 28 28 26 23 21 20 18 16 16 14 9 6 6 6 6 7 6 6 6 7 7 7 8 7 7 7 7 7 7 7 6 7 7 8 7 8 8 7 7 7 7 7 7 7 6 6 5 6 5 5 6 6 8 9 10 11 12 12 13 13 14 16 18 21 22 21 21 26 38 48 56 59 47 31 39 57 61 60 67 69 56 57 66
41 28 21 19 18 17 17 17 16 16 18 20 21 24 26 25 25 23 22 21 19 18 18 15 10 7 6 5 6 6 6 7 8 9 10 9 8 7 8 7 7 7 8 8 8 8 8 8 8 8 8 8 8 7 7 7 7 7 7 7 6 6 6 6 6 6 6 7 9 10 11 12 13 13 14 15 15 17 18 18 18 18 24 35 46 52 46 36 40 55 62 52 52 66 61 54 62
43 29 21 19 19 17 18 18 16 16 16 18 22 24 27 29 28 27 26 25 22 21 20 14 8 7 6 5 6 6 7 9 9 9 9 9 8 8 8 8 9 9 9 9 9 9 9 9 9 9 9 9 9 8 8 8 7 7 7 7 7 7 7 7 6 7 6 7 7 8 10 11 12 12 13 14 14 15 15 15 16 16 18 24 32 40 43 39 43 51 54 50 56 68 69 66 68
42 31 23 21 19 18 18 17 16 17 17 20 26 29 31 32 32 32 29 27 25 24 19 12 8 7 6 7 7 9 10 9 8 7 8 10 10 10 9 10 10 10 10 10 9 9 10 10 10 10 10 10 10 10 10 9 9 8 8 7 7 7 7 7 7 7 7 7 7 7 8 9 10 11 12 13 14 14 14 14 14 15 15 17 20 25 31 33 39 49 51 54 68 78 77 73 69
43 35 22 21 18 16 17 16 17 17 17 23 29 33 37 37 36 36 32 29 27 25 21 13 8 7 8 7 8 11 11 10 8 8 12 15 13 12 11 11 11 11 11 10 10 10 10 11 11 11 11 11 11 11 11 11 11 10 10 9 9 8 7 7 7 7 7 7 7 7 7 7 8 8 10 10 11 12 13 13 13 14 14 15 16 17 20 22 25 34 44 51 60 74 81 80 73
46 40 22 20 20 18 17 16 16 17 22 32 34 35 37 37 37 36 34 32 30 27 24 18 10 7 7 7 8 11 12 10 8 9 16 18 15 14 12 12 12 11 11 11 11 11 11 11 11 11 11 11 11 12 12 12 12 12 12 11 11 10 10 9 8 8 7 7 7 7 7 7 8 7 8 8 8 9 9 11 11 12 13 13 14 15 16 17 17 18 28 38 47 59 70 80 82
44 46 31 26 26 22 19 16 16 17 26 37 40 40 40 39 37 36 35 33 33 30 27 23 13 7 7 7 8 11 11 9 9 11 15 17 16 15 13 13 12 12 12 11 12 11 11 11 10 10 10 11 11 11 11 11 11 11 11 11 12 11 12 11 11 11 9 9 8 7 7 6 7 7 7 7 7 7 8 8 9 9 11 12 12 13 14 15 15 14 16 21 30 39 52 67 76
38 45 41 37 34 31 24 17 17 19 24 33 40 45 46 45 42 39 38 36 35 34 33 29 15 7 8 8 9 10 10 9 11 13 13 14 14 14 14 13 12 12 12 12 11 11 11 10 10 9 10 10 11 11 11 11 11 11 11 11 12 12 12 12 12 12 12 12 11 10 10 8 8 7 7 7 7 7 7 7 8 8 8 9 9 10 11 13 13 13 14 14 15 22 49 74 78
31 36 46 47 42 41 29 18 19 21 23 30 39 45 48 48 46 44 42 40 39 36 34 29 14 7 9 8 9 8 9 10 12 13 13 14 14 14 13 12 12 12 12 11 11 11 10 11 10 10 10 11 11 12 11 11 11 11 12 12 12 12 11 12 12 12 12 12 12 12 12 12 11 10 9 8 8 7 7 7 7 7 7 8 8 8 8 10 11 11 12 13 12 12 39 78 89
25 32 45 40 38 44 34 20 18 22 25 30 35 42 46 45 44 43 41 38 33 29 27 21 11 7 9 9 9 9 10 12 12 13 14 15 14 13 13 12 12 11 11 11 10 10 11 12 12 12 12 12 12 12 12 12 12 12 13 13 12 12 12 12 12 12 13 13 13 13 12 13 12 12 12 11 10 9 8 7 7 7 7 7 7 8 8 8 9 10 11 10 13 10 17 47 75
20 31 37 31 37 49 41 25 18 21 27 31 34 40 43 43 43 40 39 35 23 18 17 13 9 8 9 10 10 10 11 12 13 13 14 15 14 14 13 12 11 11 10 10 10 10 11 12 13 13 13 13 13 12 13 13 13 13 13 13 13 13 13 12 13 13 13 13 13 13 13 13 13 12 12 12 12 11 11 9 9 8 7 8 7 7 7 8 8 8 10 9 11 12 10 16 35
28 35 37 38 45 51 46 30 18 19 25 30 34 38 40 41 42 38 38 31 16 13 12 10 9 9 10 11 12 12 12 12 13 14 15 15 14 13 12 11 10 10 10 10 10 11 11 12 13 13 13 13 14 13 13 13 13 14 14 14 14 14 13 13 14 14 14 14 14 14 14 14 13 13 13 13 12 12 12 11 11 10 9 9 8 8 8 8 8 8 9 9 9 10 12 11 12
45 44 44 47 47 49 47 33 20 20 24 26 28 33 36 36 34 32 31 23 14 12 10 9 10 10 11 11 12 12 12 13 13 15 16 15 14 13 12 10 10 10 11 11 11 12 12 12 13 13 13 13 14 14 14 14 14 14 14 14 14 14 14 14 14 14 15 15 15 14 14 14 13 13 13 13 13 12 12 12 11 11 11 11 10 10 10 9 9 9 9 9 10 9 10 11 11
47 43 42 47 47 45 40 31 22 21 23 23 28 34 31 27 27 25 22 17 15 14 10 10 10 10 11 10 11 11 12 13 14 16 17 15 14 12 11 10 10 11 12 12 12 13 12 12 13 12 13 13 13 13 14 14 14 15 15 15 15 14 14 14 14 14 15 15 15 15 14 14 14 14 13 13 13 13 12 12 12 12 11 11 11 10 10 11 10 10 10 10 10 10 10 10 11
38 37 35 36 39 37 32 30 26 25 28 29 35 40 28 22 26 25 19 16 16 14 10 9 10 10 11 10 11 11 12 14 15 16 16 14 13 12 12 11 11 12 12 12 12 13 13 13 13 12 12 13 13 14 14 14 15 15 15 15 15 15 14 14 14 14 15 15 15 15 15 15 14 14 14 14 13 13 13 13 13 13 12 12 12 11 11 11 11 10 10 11 11 11 11 11 12
39 41 41 38 37 35 31 30 30 31 33 35 38 36 24 20 31 28 17 16 17 13 11 9 10 10 11 11 12 13 13 13 14 15 14 12 12 12 12 12 11 12 12 12 13 13 14 14 13 13 13 13 13 13 14 14 14 14 14 15 15 15 15 14 14 15 15 15 14 14 14 14 15 15 15 15 15 15 14 14 14 14 14 14 13 13 13 12 12 11 11 11 11 11 11 13 15
42 41 46 51 49 47 44 34 30 34 32 32 34 28 20 22 35 31 16 16 17 13 11 10 11 10 11 13 13 14 14 14 14 12 12 11 12 13 13 12 11 11 12 12 13 13 14 14 14 14 13 13 13 13 13 13 13 14 14 14 14 14 15 15 14 15 15 15 15 14 13 13 14 15 15 15 15 15 15 15 15 15 16 16 16 16 16 15 14 13 14 12 12 12 11 12 13
35 32 36 43 43 44 51 43 31 33 31 29 30 27 22 25 32 25 15 17 16 14 12 9 11 10 11 15 16 16 16 16 14 11 11 11 11 13 13 12 11 11 12 13 14 14 14 14 14 14 14 13 13 13 12 13 13 13 13 13 13 14 14 14 13 14 15 15 15 14 13 13 13 14 15 15 15 14 14 14 14 15 15 16 17 17 18 17 17 17 16 15 15 15 14 18 30
32 32 36 37 37 33 36 47 41 32 29 28 33 34 26 24 24 18 16 17 16 16 13 10 10 10 12 15 18 20 20 19 15 12 10 10 11 13 15 13 12 13 15 16 15 15 14 14 13 13 13 13 13 13 13 13 12 12 12 12 13 13 14 14 14 13 14 14 14 14 13 12 12 12 13 14 14 13 13 13 12 13 12 13 14 15 18 18 18 18 17 19 18 19 24 42 67
40 44 49 47 50 34 16 33 47 43 36 29 35 41 29 21 20 17 17 16 16 18 15 12 11 12 13 15 20 23 25 23 17 12 10 10 12 15 17 16 16 17 18 18 17 15 14 13 14 13 13 13 13 13 13 13 13 13 12 13 13 13 14 14 14 14 14 14 14 14 13 13 12 12 12 12 12 12 12 12 12 12 12 12 12 12 14 15 16 17 18 19 21 31 42 54 73
50 56 56 56 59 40 18 21 36 49 50 37 34 39 30 21 20 17 17 17 18 19 16 13 12 12 13 14 20 26 27 25 17 13 12 12 14 17 21 21 20 21 21 20 17 15 14 13 13 13 14 14 14 14 13 13 13 13 13 13 13 13 14 14 14 13 13 13 13 13 13 13 13 13 13 12 12 12 12 13 12 13 14 14 15 14 14 14 15 16 20 21 26 54 76 69 63
52 63 62 63 62 50 39 27 26 42 54 51 39 34 29 21 19 16 17 20 19 18 16 13 12 12 14 16 22 27 26 24 18 14 13 14 18 21 25 25 25 24 23 22 18 16 15 14 14 13 14 14 14 14 13 14 13 13 13 13 13 14 14 14 14 14 13 13 13 13 13 13 13 13 13 12 13 12 12 12 12 13 15 17 19 20 20 19 20 18 21 24 26 59 98 94 78
57 69 70 71 68 61 48 22 18 33 48 59 44 29 29 25 22 19 19 23 21 20 19 16 15 14 16 19 23 24 22 21 18 15 13 15 19 25 29 28 27 25 24 22 18 16 15 15 14 14 14 14 14 14 14 14 14 14 14 14 14 14 14 14 14 15 14 15 14 14 14 13 13 13 14 13 12 12 12 12 12 12 13 16 19 23 25 25 26 24 23 27 25 40 71 78 76
71 78 77 70 63 62 52 25 19 29 44 59 44 30 35 33 30 24 22 27 26 24 24 22 19 17 18 19 20 20 20 20 19 17 15 15 19 26 29 29 28 26 25 22 18 17 16 16 15 15 15 14 14 15 15 15 15 16 15 15 16 15 16 16 15 16 15 16 15 15 15 14 14 14 14 14 13 13 13 12 12 12 12 13 15 19 25 27 28 29 27 30 30 31 41 44 46
75 75 68 55 46 46 46 38 35 40 52 56 40 33 38 37 34 27 25 31 29 26 27 27 24 21 21 20 20 21 22 22 21 21 20 18 20 25 29 29 29 28 27 23 18 17 17 17 16 15 15 15 15 16 16 16 16 16 16 16 17 17 17 17 17 17 17 17 16 16 16 16 15 15 15 14 14 14 13 13 13 13 12 12 12 13 17 20 21 24 25 25 27 29 32 34 35
71 66 61 55 55 50 47 55 59 61 63 54 41 36 37 36 34 29 27 30 33 31 29 29 27 25 25 24 23 23 23 21 21 23 24 24 25 28 31 31 30 30 28 23 18 18 18 17 17 16 16 16 17 17 17 17 17 17 17 17 18 18 18 17 17 17 18 18 17 17 17 17 16 16 16 15 15 14 14 14 13 13 13 12 13 12 12 13 14 15 17 17 19 22 24 28 33
81 76 73 68 72 67 61 71 73 69 65 56 49 41 36 36 34 30 29 28 31 33 33 31 28 26 25 23 21 21 23 24 23 24 26 28 30 32 33 33 32 32 29 24 19 19 19 17 17 16 17 17 18 19 18 18 18 18 19 19 19 19 18 17 18 18 18 18 18 18 18 17 17 17 16 16 15 15 15 15 15 15 15 15 15 15 14 14 13 13 13 14 17 20 23 26 29
93 91 86 79 80 77 75 78 75 74 72 65 60 53 47 43 37 34 32 29 28 30 33 31 27 24 20 18 17 21 27 29 28 27 25 27 30 33 35 34 34 33 30 25 19 19 19 17 17 17 17 19 19 19 19 19 20 20 21 20 20 19 19 19 19 19 18 18 18 19 19 19 18 18 18 18 17 17 17 17 17 17 17 18 17 17 17 17 16 15 14 13 14 19 25 31 35
95 93 89 83 81 79 80 79 76 76 74 66 62 61 60 53 45 40 36 32 30 31 31 29 26 21 17 15 14 19 28 32 31 28 24 24 26 31 35 35 34 33 32 27 20 19 19 18 18 18 19 20 20 20 20 21 21 21 21 21 21 20 20 19 19 18 18 18 19 20 21 21 21 21 20 20 19 19 19 19 19 19 19 19 19 19 19 19 18 17 16 15 13 15 18 25 35
93 92 89 83 80 82 80 76 75 75 72 67 61 59 62 61 55 51 47 39 31 30 30 28 25 20 18 16 12 18 28 32 33 30 25 24 25 30 34 35 34 33 33 28 21 20 19 19 18 19 20 21 21 20 20 21 22 22 22 22 22 22 20 18 16 16 16 18 20 21 23 23 23 23 22 22 21 20 20 20 20 20 20 19 19 19 19 19 19 18 17 17 15 15 14 17 26
93 91 91 88 86 86 82 77 77 76 74 70 64 60 60 59 56 55 55 49 40 35 32 29 26 23 20 16 13 19 28 32 34 32 28 27 28 32 34 34 34 33 34 30 23 20 20 19 19 20 21 22 21 20 21 22 23 23 23 23 23 21 18 16 14 15 16 19 22 23 24 25 24 24 23 22 21 20 20 19 19 19 18 18 18 18 17 17 18 17 17 17 16 16 16 18 23
95 88 89 91 92 91 90 88 82 76 73 69 65 63 59 53 52 52 49 47 44 39 35 33 30 25 21 18 19 24 28 33 36 33 30 30 31 34 35 34 34 34 34 31 23 21 21 20 21 21 22 23 22 21 22 24 25 25 25 24 21 17 14 12 12 13 15 16 19 21 22 22 22 21 21 20 19 19 18 18 18 17 17 17 16 16 16 15 15 16 17 18 17 17 18 21 29
96 81 78 83 89 91 91 89 81 74 72 68 64 64 60 53 52 51 46 43 40 36 33 29 25 25 23 23 24 23 24 29 34 35 31 31 32 34 35 35 35 35 35 31 24 22 22 22 22 23 23 24 23 23 24 26 26 25 24 20 15 12 10 9 11 13 15 17 19 20 20 20 19 18 18 17 16 16 16 15 15 15 15 15 15 15 15 15 16 17 18 18 19 20 23 29 37
86 70 71 75 80 84 84 82 80 77 74 71 67 62 60 57 55 54 51 49 45 40 37 28 21 24 25 23 20 18 19 21 27 34 31 31 35 36 36 36 36 37 36 30 24 23 23 22 23 23 24 25 24 24 26 26 27 25 21 16 11 9 9 11 15 18 19 19 19 19 17 17 16 15 14 13 14 14 14 14 14 15 16 16 16 16 16 17 18 19 20 22 22 24 30 39 46
74 67 75 77 77 79 78 78 79 76 75 74 67 62 64 61 56 56 54 51 49 46 44 36 25 20 18 19 18 18 21 21 23 32 32 31 36 37 37 38 37 38 35 29 24 23 24 23 23 24 24 25 24 25 27 27 26 22 18 12 8 9 11 15 19 19 18 14 13 12 12 13 13 12 13 13 14 14 15 16 17 18 18 18 18 18 19 21 23 25 27 30 33 37 45 52 60
76 76 84 84 84 83 79 78 75 73 76 74 65 62 66 63 56 56 56 51 48 46 44 40 32 23 17 16 17 18 23 24 23 29 32 33 36 37 38 38 38 38 34 28 25 23 24 23 24 25 25 25 25 25 28 27 24 20 15 10 8 11 14 17 17 13 10 8 7 8 8 10 11 12 14 15 17 18 19 20 20 20 20 20 20 21 24 28 33 37 39 44 49 56 64 70 74
84 85 87 88 91 89 81 74 68 74 81 72 65 64 63 64 56 49 52 49 43 42 38 37 36 31 26 20 17 20 25 24 21 26 32 34 37 37 38 38 38 37 32 28 25 24 24 24 25 26 26 27 26 27 29 28 24 20 14 10 12 16 17 16 11 7 6 6 7 8 9 10 12 15 17 18 20 21 22 23 23 23 23 23 24 27 33 41 49 55 58 62 67 71 79 83 82
93 92 89 89 91 88 84 77 72 84 85 67 62 63 63 66 53 41 47 44 37 35 32 31 33 32 30 26 22 25 31 28 22 27 33 34 36 37 38 39 37 36 32 28 26 25 26 27 27 28 29 30 28 29 32 30 25 20 13 12 16 20 17 12 7 6 7 7 8 9 10 11 13 15 16 17 18 19 20 21 21 22 23 26 32 40 50 59 68 74 77 82 85 86 87 81 72
97 93 92 94 90 88 91 86 82 86 80 66 61 60 62 61 45 35 43 42 38 37 34 31 32 31 30 28 26 28 36 32 25 30 35 34 36 37 38 39 37 35 32 28 27 27 29 29 28 29 32 32 30 31 34 33 29 19 12 15 19 18 13 8 7 7 7 7 8 8 8 8 9 10 11 11 12 13 13 13 13 14 17 23 33 45 58 68 77 84 89 92 89 82 78 75 71
88 83 89 97 92 95 98 87 83 82 72 64 60 59 64 58 44 42 46 45 42 40 38 36 35 34 33 32 29 30 36 34 28 33 37 35 37 38 39 39 37 34 32 30 29 30 32 32 30 32 34 33 32 34 37 38 31 18 12 17 18 14 9 7 7 7 7 6 6 6 6 7 7 7 7 7 8 8 9 9 9 9 10 14 21 30 39 47 56 68 78 78 70 64 68 78 82
83 78 82 88 84 87 89 80 81 80 67 63 62 65 68 56 47 47 46 44 43 41 40 40 39 38 36 35 32 29 32 34 33 36 38 38 38 38 39 38 37 35 33 32 32 33 34 33 33 35 36 34 34 37 41 42 32 17 14 17 14 10 8 7 7 6 5 6 5 6 6 6 6 6 5 5 6 7 8 8 9 9 9 11 13 16 19 22 25 34 46 52 56 66 81 90 90
91 88 86 88 82 79 76 71 70 70 71 72 67 65 60 49 45 45 45 46 44 42 41 39 40 40 38 39 37 32 30 31 35 38 39 40 40 40 40 39 37 36 34 34 35 35 36 36 37 38 36 36 37 40 46 45 30 16 15 15 10 8 7 6 6 5 5 6 5 6 5 5 6 5 5 5 6 7 9 11 11 12 14 15 16 17 19 21 21 24 31 41 52 69 83 86 83
83 87 85 82 81 79 78 75 68 69 81 78 63 59 56 52 51 46 46 49 43 41 39 35 35 35 37 40 39 37 31 29 34 38 39 40 39 40 41 39 38 37 37 38 38 37 38 39 39 39 38 38 40 45 51 45 27 16 14 11 7 7 6 5 5 5 5 5 5 5 5 5 6 6 6 7 8 10 12 15 17 19 21 23 25 26 28 29 31 33 37 43 49 56 63 64 63
79 82 79 74 78 81 83 84 78 79 88 76 60 60 59 57 55 45 46 49 45 42 39 35 34 32 34 37 39 41 35 31 34 37 39 39 39 40 41 39 38 38 39 40 40 40 41 41 40 40 41 42 45 50 52 42 24 15 12 8 6 6 5 5 5 5 6 5 6 6 6 7 7 8 9 10 12 14 16 19 22 24 27 29 31 33 34 35 37 40 42 44 46 46 48 49 50
83 82 80 79 82 83 84 88 87 88 92 79 64 62 60 58 52 45 48 48 44 44 41 38 36 32 33 33 35 39 37 35 36 37 39 39 39 42 41 40 39 39 41 41 42 43 42 41 42 43 44 46 51 54 50 37 21 13 9 6 6 5 5 6 5 6 7 6 7 7 7 9 9 10 11 12 14 15 17 19 21 24 26 29 32 34 36 37 38 39 39 39 40 40 41 42 43
85 88 90 87 83 80 81 84 84 86 88 82 73 66 60 55 49 46 49 46 44 47 43 40 39 34 32 30 31 34 36 38 39 38 40 40 41 43 42 40 40 40 42 43 44 44 43 44 45 47 48 50 55 55 45 30 16 9 7 6 6 6 6 7 7 8 8 8 9 9 9 10 11 12 13 13 14 15 16 18 19 22 24 27 30 32 34 36 37 37 38 37 38 37 38 40 42
83 89 94 93 90 89 88 86 82 81 84 82 81 77 61 48 47 48 49 46 46 47 44 42 41 37 33 30 30 33 37 40 41 41 41 41 42 43 42 42 41 42 44 45 45 45 45 49 51 51 52 55 57 51 37 21 11 8 7 7 7 7 7 8 9 9 10 10 11 11 11 12 12 13 13 14 15 15 16 18 19 21 24 26 29 30 32 33 34 36 38 39 41 42 43 44 45
84 84 84 83 85 90 95 92 83 81 85 78 77 81 61 42 46 51 50 50 48 46 45 45 43 39 35 33 32 34 39 42 43 43 43 42 43 45 45 44 43 44 46 46 46 47 51 55 55 54 55 58 55 42 25 13 8 8 8 8 8 8 9 10 10 11 11 11 12 12 12 12 12 13 14 15 16 17 18 19 21 24 26 28 29 30 30 30 31 34 38 42 45 48 50 51 52
Wind_Speed
15 15 15 15 15 15 15 14 13 11 9 6 4 3 5 8 9 10 12 13 14 14 15 16 16 16 15 16 15 14 14 14 13 14 14 14 15 15 15 15 15 15 16 17 18 19 19 20 19 19 18 16 15 15 15 16 17 18 19 20 21 21 20 20 20 20 21 21 21 22 22 22 21 21 21 21 22 21 20 19 19 19 19 19 20 20 19 19 19 18 17 18 17 16 15 13 12
16 15 15 15 15 15 15 13 12 11 10 8 5 4 6 8 9 10 12 13 14 16 19 19 18 17 16 15 15 13 13 14 13 15 15 15 15 15 16 16 16 16 17 18 19 20 19 19 19 18 17 16 15 15 15 16 17 18 19 21 22 23 23 23 23 23 23 23 23 24 24 24 25 24 24 24 24 23 22 21 21 21 21 20 21 21 20 20 19 18 18 18 17 17 15 14 14
17 15 15 15 14 15 14 13 12 10 11 10 7 7 8 9 10 12 13 14 15 18 21 22 20 19 17 15 15 13 13 14 14 15 15 15 15 14 15 15 15 15 15 16 17 18 17 17 16 16 16 15 15 14 14 14 15 16 17 19 21 23 24 24 25 25 25 24 24 25 26 26 27 27 26 26 26 25 23 23 22 21 21 21 21 21 21 20 19 18 18 19 19 18 17 15 15
18 16 15 15 15 14 14 14 12 10 12 11 7 7 9 10 11 13 14 15 17 20 24 26 23 19 17 16 15 15 14 14 14 15 15 15 15 15 14 14 13 14 14 14 15 15 15 15 15 14 14 13 13 12 12 12 12 13 14 16 17 19 21 23 23 24 24 24 24 25 26 27 27 27 27 26 27 25 23 23 22 21 21 21 21 21 21 20 19 18 19 20 20 19 18 17 15
19 18 16 15 15 14 14 14 11 11 12 9 8 8 10 12 14 15 16 18 20 22 26 27 23 18 17 17 17 16 15 15 14 14 15 16 16 16 15 13 12 12 12 12 13 13 14 14 14 13 12 12 11 10 10 10 10 11 12 13 14 16 17 19 20 21 21 22 23 24 25 26 27 27 27 27 27 25 22 21 21 21 21 21 21 21 21 20 19 19 19 19 20 20 19 18 16
19 19 18 16 15 14 14 14 12 12 8 8 10 10 11 13 16 18 20 21 22 24 26 24 21 18 16 18 17 16 16 15 14 15 16 17 17 17 16 14 12 11 11 11 11 11 12 13 13 13 12 11 10 9 9 8 8 9 10 10 11 12 14 15 17 18 19 20 21 23 24 25 26 27 27 27 25 23 21 20 19 19 20 21 21 21 21 20 19 19 20 19 20 20 19 19 17
19 19 18 16 16 15 16 15 12 9 3 6 9 9 10 13 17 20 22 22 23 24 23 21 21 18 15 17 17 16 16 16 16 16 17 17 17 17 16 14 12 11 11 10 10 11 12 12 13 12 11 10 9 9 9 9 8 8 8 9 10 10 11 12 13 14 16 17 19 20 22 23 25 25 25 25 23 22 20 18 18 18 20 21 21 21 22 22 20 20 21 21 21 20 20 19 18
20 20 19 17 17 16 17 16 12 7 3 3 6 9 11 14 18 21 23 23 24 24 22 20 19 17 15 16 16 16 17 17 18 17 17 17 17 16 15 14 12 11 10 10 10 10 11 12 13 13 12 11 10 10 9 9 9 8 8 9 9 10 10 10 11 12 13 15 17 18 20 22 23 23 23 22 22 21 19 18 18 19 21 21 22 22 22 23 22 21 22 22 21 21 21 20 19
21 19 20 19 18 17 18 17 12 8 6 4 5 8 13 15 18 21 23 25 26 24 20 19 18 17 16 14 15 17 18 18 19 18 17 16 16 16 14 13 11 10 10 10 10 10 11 12 12 13 13 13 12 11 11 10 10 10 9 9 9 9 10 10 10 11 12 13 15 17 18 20 21 21 21 21 21 20 20 19 19 20 22 22 23 23 23 24 24 23 23 23 22 22 22 22 21
21 20 21 20 19 18 19 17 13 11 10 9 9 10 14 17 19 22 25 26 25 22 18 18 18 18 16 15 15 16 17 17 18 17 17 16 15 14 13 11 10 10 10 9 10 10 11 12 12 13 13 13 13 13 12 12 12 11 11 10 10 10 10 10 10 11 11 12 13 15 16 17 18 19 19 20 20 20 21 21 21 22 23 24 24 24 24 25 26 24 24 23 22 23 23 23 22
21 21 21 20 20 20 20 19 17 15 13 14 15 15 17 19 22 23 25 24 23 20 19 19 19 17 17 16 14 15 16 17 17 16 15 14 12 12 11 11 11 11 11 10 10 11 12 12 12 12 13 13 13 13 13 13 13 12 12 12 11 11 11 11 11 11 11 11 12 13 14 15 16 17 18 19 20 21 21 22 22 23 24 25 26 25 25 25 25 25 25 24 23 24 24 24 24
20 21 21 21 22 22 22 22 21 17 15 15 16 18 18 20 22 21 21 21 21 21 21 21 20 17 17 16 13 14 14 15 14 13 12 10 10 11 10 11 12 12 13 12 11 11 12 12 12 11 12 12 12 12 12 12 12 12 12 11 12 12 12 11 11 11 12 12 12 13 13 14 15 16 17 18 19 20 21 22 22 23 24 25 25 25 25 24 24 24 25 25 23 24 26 25 25
20 20 21 21 22 23 22 23 22 19 16 13 13 16 16 18 19 19 21 21 22 22 22 21 20 19 18 16 13 11 12 13 12 10 9 9 10 10 10 11 12 13 13 13 11 10 10 10 10 10 11 11 11 11 11 11 11 11 11 11 11 11 11 11 11 11 11 12 12 13 13 14 14 15 16 17 19 20 21 22 22 23 24 25 25 25 25 24 24 24 24 24 23 25 26 26 27
21 20 21 21 23 23 23 24 22 20 17 12 13 14 14 16 18 21 22 23 22 22 22 21 20 20 18 15 11 10 11 13 12 10 10 10 11 11 10 10 11 12 13 14 12 10 10 10 10 10 11 11 11 10 10 10 10 10 10 10 10 11 11 11 12 12 12 12 13 13 13 14 14 14 15 16 18 19 20 21 22 23 23 24 26 26 26 25 25 25 25 25 25 26 26 27 28
22 21 22 23 24 24 24 25 21 21 17 11 13 14 14 17 20 23 23 23 23 23 23 23 20 19 19 15 11 11 13 14 13 11 9 9 10 11 10 10 11 12 14 15 14 13 12 11 11 11 11 12 12 11 11 11 11 10 10 10 10 10 10 10 11 11 12 12 13 14 14 14 14 14 15 16 17 18 19 20 20 21 23 24 25 26 27 27 26 27 27 26 27 26 26 28 28
23 23 23 25 27 26 25 25 22 20 15 10 12 14 16 19 22 25 24 24 25 25 26 25 21 18 19 16 12 14 15 15 14 10 7 8 9 10 11 11 12 13 14 15 16 15 14 14 13 13 12 13 13 13 13 12 12 12 11 11 11 10 10 10 10 10 11 12 13 13 14 14 14 15 15 16 16 17 18 18 19 20 22 23 24 25 26 27 27 28 28 28 28 27 26 28 30
24 25 25 28 30 29 27 25 21 18 14 11 10 13 17 20 23 25 26 27 27 28 29 29 23 17 18 17 15 18 18 17 14 9 7 8 10 10 11 12 13 14 14 15 16 17 16 16 15 15 14 14 14 14 14 14 13 13 13 12 12 12 12 11 11 12 12 12 12 13 13 13 14 15 15 16 16 17 17 17 18 19 20 22 23 24 25 26 27 27 28 29 29 28 28 29 33
25 28 29 31 31 30 27 23 19 18 16 14 14 15 19 21 23 26 28 29 29 31 32 31 25 18 17 18 19 21 20 19 14 11 9 10 11 12 13 13 14 14 15 16 17 18 18 18 17 16 16 15 15 15 15 14 14 14 14 14 14 14 13 13 14 14 14 14 14 14 14 14 14 14 15 15 16 16 17 17 17 18 19 20 21 22 23 25 26 27 28 29 29 29 29 30 32
28 30 32 34 32 30 27 23 20 20 19 18 19 19 20 22 23 26 30 32 33 35 35 33 27 18 16 19 22 22 20 18 15 14 13 13 14 14 15 15 16 16 16 17 18 18 18 19 19 18 17 16 15 15 15 15 15 15 15 15 15 15 15 15 15 15 15 16 16 16 16 16 16 16 15 15 16 16 16 17 18 18 19 19 20 21 22 23 24 26 27 28 29 30 30 30 32
31 31 35 36 31 30 28 24 22 20 20 22 23 22 23 24 25 28 32 34 35 37 35 31 26 18 15 19 22 22 20 19 17 16 16 16 16 16 17 18 18 18 18 19 19 19 18 18 19 19 19 18 17 17 17 16 16 16 16 17 17 17 17 17 17 16 17 17 17 18 18 19 19 19 18 18 17 17 17 18 18 19 20 20 21 21 21 22 23 24 25 27 28 30 30 30 32
33 33 36 35 30 32 30 25 24 21 20 23 25 26 27 27 28 30 33 36 34 32 30 26 23 18 15 18 20 22 22 20 18 17 18 18 18 18 19 20 20 20 20 21 21 20 20 20 20 20 20 20 20 20 19 19 18 18 18 19 19 19 19 18 18 18 18 19 19 19 20 20 21 21 20 20 20 20 19 19 19 20 20 21 22 22 21 22 23 24 24 26 27 29 30 31 34
34 35 34 32 30 34 31 26 25 22 21 24 26 29 30 30 32 32 34 36 31 27 26 24 22 19 17 17 19 22 22 21 19 18 19 19 20 21 22 21 21 21 21 21 22 22 22 22 21 21 22 22 22 23 22 22 21 21 21 20 21 21 21 20 20 20 20 20 21 21 21 21 22 22 22 22 21 22 21 21 21 21 22 22 23 23 22 22 23 24 25 26 27 28 30 32 34
32 33 31 31 31 34 32 29 27 23 24 26 27 30 31 34 35 35 36 33 28 27 26 24 21 19 19 19 20 22 23 22 21 20 20 21 22 24 24 23 22 21 20 21 22 23 23 23 23 23 23 23 24 24 25 24 24 23 23 23 22 23 22 22 22 22 22 22 22 22 22 22 23 24 24 23 22 23 23 23 22 23 23 23 25 24 24 24 24 25 26 27 28 29 30 31 33
30 32 30 30 31 33 32 31 29 25 26 27 27 30 32 35 37 37 36 28 25 26 24 23 22 20 21 22 22 21 22 22 21 21 22 23 24 25 25 24 22 20 21 22 23 23 23 23 24 24 24 25 25 25 25 25 24 23 23 23 23 23 23 23 23 22 22 22 23 23 23 24 24 24 25 24 24 23 23 24 24 24 24 24 26 25 25 26 26 26 27 28 29 30 31 32 33
30 31 29 29 29 31 30 30 30 28 28 27 28 32 32 33 36 40 35 25 24 26 23 23 25 23 22 23 22 19 20 21 21 21 23 25 26 26 25 24 22 21 23 24 23 23 23 24 25 26 26 26 25 24 23 23 22 21 21 21 21 22 22 22 22 22 22 22 23 24 24 24 25 25 25 25 25 24 24 24 24 24 24 25 26 26 27 28 28 28 28 29 30 30 31 32 33
29 28 27 28 30 30 30 31 31 30 29 28 31 35 33 30 36 42 33 23 23 22 19 22 25 25 22 20 20 19 20 20 21 22 24 26 26 26 25 24 23 23 24 24 23 23 24 26 25 25 24 23 22 21 20 20 20 20 20 20 20 20 21 21 21 21 21 22 23 24 24 24 24 24 25 26 26 26 25 25 25 25 25 26 27 27 28 29 29 29 29 30 30 31 31 31 32
29 29 30 31 32 32 32 33 33 32 32 31 33 36 33 32 40 43 29 22 23 19 18 22 24 25 22 19 19 19 20 19 21 22 24 26 26 26 26 25 24 23 23 23 24 25 26 25 22 20 19 19 19 19 19 19 19 20 20 20 20 20 21 22 22 21 21 21 22 23 24 24 24 23 24 25 26 27 27 27 26 26 26 26 27 27 28 29 29 29 29 30 30 30 30 30 30
31 32 35 35 34 35 35 36 35 33 34 34 34 37 38 38 44 42 27 24 27 21 21 24 26 27 23 20 18 18 19 19 21 22 24 26 27 28 26 25 24 23 23 23 24 25 24 22 18 17 17 17 18 19 19 19 19 20 20 20 21 21 21 22 23 22 22 22 22 22 24 25 25 24 24 24 25 26 27 27 27 27 27 26 27 27 28 29 30 29 30 30 30 30 29 29 28
31 33 36 37 35 37 37 36 36 35 37 36 33 41 46 44 44 38 27 27 28 23 22 24 26 25 21 20 18 18 19 20 21 23 25 27 29 28 26 25 24 23 23 24 25 24 21 18 18 18 18 18 18 19 19 18 19 19 20 20 21 21 21 22 23 23 23 22 22 22 23 25 26 25 25 25 25 25 26 27 28 28 28 28 28 28 28 30 31 30 30 30 30 29 28 28 30
29 29 32 36 35 39 40 35 34 35 39 36 32 44 52 45 40 33 26 28 28 23 21 22 23 22 21 20 19 20 20 21 22 23 25 27 29 28 26 26 25 25 25 25 25 22 19 17 18 18 18 18 18 18 18 18 18 18 19 20 20 21 21 21 22 23 23 23 23 23 23 24 26 26 26 26 26 26 26 27 28 29 28 28 29 29 30 30 31 31 30 29 28 27 26 28 32
31 30 32 35 35 41 41 35 34 33 36 33 29 45 53 44 39 31 24 26 27 25 23 24 24 24 23 21 20 22 21 22 23 24 25 26 28 29 27 27 27 27 27 27 24 20 19 18 18 18 17 17 17 18 18 18 18 19 19 20 20 20 21 21 22 23 23 24 24 23 23 23 24 26 26 26 27 27 26 26 27 28 28 28 29 30 30 31 31 31 30 29 27 25 26 29 33
33 33 36 35 35 41 41 37 36 34 35 31 29 42 49 43 38 29 23 23 23 24 23 23 23 23 22 21 22 23 23 24 24 25 27 28 29 28 28 28 29 30 29 27 23 19 18 17 17 17 17 16 17 18 18 19 19 20 20 20 21 21 21 22 22 23 23 24 25 25 25 25 24 25 26 26 27 28 28 28 27 27 28 28 28 29 30 31 32 32 31 30 30 27 29 33 35
34 35 38 35 35 39 40 39 37 33 33 31 31 40 44 40 35 26 23 23 23 24 23 21 21 20 20 21 22 24 25 25 26 27 29 31 30 29 29 29 30 31 29 27 22 19 17 17 17 16 16 17 18 19 20 20 20 20 20 20 21 21 22 23 23 24 24 25 26 27 27 27 27 26 26 27 27 28 29 29 30 29 29 28 29 29 30 31 32 33 32 31 33 32 34 38 38
36 34 38 39 38 39 40 41 36 30 31 31 30 37 40 35 31 25 23 25 27 27 25 22 21 20 20 21 24 26 27 28 28 29 30 32 32 31 32 32 32 31 29 26 22 19 17 16 16 16 16 17 19 20 21 22 21 21 21 21 21 22 23 24 25 26 26 27 27 27 28 28 28 28 27 27 27 27 28 28 29 30 30 29 29 29 29 31 32 33 33 32 34 35 37 40 41
33 32 37 40 40 41 41 38 33 28 30 32 31 36 38 33 31 28 23 26 32 31 27 26 24 23 23 24 27 28 30 31 30 29 29 31 32 33 34 33 33 31 28 25 22 18 17 16 16 16 17 18 19 21 22 22 22 21 21 21 22 23 24 25 26 26 26 27 27 27 27 27 27 27 27 27 27 27 27 28 28 29 30 30 30 30 30 31 32 34 35 35 35 36 38 40 41
31 31 34 37 38 41 41 36 32 28 29 33 34 37 39 35 33 32 27 26 30 32 30 29 29 28 27 27 31 34 35 34 32 31 30 30 32 33 35 35 33 32 28 25 22 19 17 16 17 18 19 19 20 22 22 22 22 22 22 22 24 25 26 26 26 26 26 26 26 27 27 27 27 27 28 28 28 28 29 29 30 30 31 32 32 33 33 33 34 35 37 38 39 39 40 41 42
35 33 35 38 39 43 41 34 31 26 28 37 36 38 42 40 37 36 33 30 32 34 33 33 33 33 34 35 38 39 38 35 33 33 32 32 33 34 36 36 34 32 29 25 23 20 18 18 18 19 20 20 22 22 22 22 22 22 23 24 25 25 25 25 26 26 27 27 27 28 28 28 29 28 29 29 30 30 31 32 32 33 33 34 34 35 35 35 36 37 38 39 41 42 42 43 45
36 36 38 40 41 44 41 34 31 26 30 41 39 41 46 44 42 40 37 36 37 37 35 35 37 37 38 39 39 40 39 37 36 35 36 36 36 37 38 36 35 33 29 26 24 21 20 20 20 20 21 22 23 22 22 22 22 23 24 24 24 24 24 25 27 28 29 29 30 30 30 30 30 30 30 31 32 32 33 34 35 35 35 35 36 36 36 37 37 38 39 40 41 42 44 45 46
35 36 38 41 43 40 37 34 32 27 31 39 38 41 49 47 45 46 44 44 44 42 41 41 40 40 38 36 37 40 41 41 40 37 37 38 38 39 39 37 36 33 30 27 25 23 21 21 21 22 22 23 23 23 22 22 23 24 24 24 24 25 26 28 30 31 31 31 31 31 31 31 31 31 32 33 33 34 34 35 36 37 37 37 37 38 38 39 39 39 40 41 41 42 44 45 46
36 36 37 43 41 34 35 35 30 27 30 35 35 38 50 50 46 49 48 48 49 47 46 45 43 41 37 35 39 42 44 43 43 41 38 38 39 40 39 38 37 35 31 28 26 24 23 23 23 23 24 25 25 24 24 24 24 24 24 25 26 28 30 31 31 31 31 31 31 30 30 31 31 32 33 34 34 35 35 36 37 37 38 39 40 40 41 42 42 42 42 42 42 42 43 44 45
36 37 38 42 39 34 37 37 32 32 33 37 36 36 52 56 47 47 48 48 53 53 52 51 47 43 38 37 41 43 45 45 44 43 40 39 39 39 39 39 38 36 32 29 27 26 24 24 24 24 25 26 26 25 25 25 25 24 26 28 30 31 31 31 30 30 30 30 30 29 30 30 32 33 34 35 35 36 37 37 38 39 40 41 42 43 44 44 44 44 43 42 43 43 43 44 44
36 36 38 38 37 37 38 37 33 32 33 35 28 21 38 48 37 35 35 33 39 41 44 49 46 42 38 36 37 39 42 44 43 42 40 39 38 39 39 39 39 37 32 30 29 27 26 25 24 24 25 26 27 27 27 26 26 27 30 31 32 32 31 29 29 28 29 29 28 29 30 31 33 34 35 36 36 37 38 39 39 40 42 42 43 44 44 44 44 43 43 42 43 43 43 43 43
36 36 35 31 32 34 34 36 31 27 28 28 20 14 26 40 36 33 28 23 27 24 26 33 35 35 31 27 27 29 34 40 42 42 41 39 39 39 40 40 39 36 33 31 30 28 26 25 24 25 26 28 28 29 29 29 30 31 32 33 33 32 30 28 27 27 27 27 27 28 29 31 32 33 34 36 37 38 38 39 40 41 41 42 42 42 42 42 42 42 42 42 42 42 42 41 41
36 35 32 29 30 29 30 35 34 34 35 32 31 28 27 39 44 40 34 32 35 34 29 27 26 26 23 20 20 23 29 37 41 43 42 40 40 41 41 40 38 35 33 32 31 29 27 25 25 26 27 29 29 31 31 32 33 34 34 34 33 30 29 27 26 26 27 27 28 29 29 31 33 34 35 36 37 37 38 38 39 39 40 40 40 40 40 40 40 41 42 42 42 41 41 40 39
35 32 30 30 27 25 28 31 31 33 30 28 35 30 20 33 45 39 38 42 43 44 40 32 27 25 22 22 23 28 33 36 39 41 41 41 41 42 42 40 38 35 34 33 31 29 27 25 26 27 29 30 32 33 33 35 36 37 36 35 32 30 28 27 27 27 29 30 30 30 30 31 33 34 34 35 36 37 37 37 38 38 39 39 39 40 40 40 40 41 42 41 41 40 40 39 39
32 28 28 30 26 23 24 23 26 24 18 23 34 26 14 26 45 39 35 43 46 45 43 38 33 32 31 30 29 35 40 39 39 40 41 42 42 43 43 41 38 36 35 34 32 29 27 26 27 28 30 32 34 35 36 38 40 39 38 36 33 31 29 29 30 31 32 33 32 32 31 31 32 33 34 35 35 36 37 37 38 38 39 39 40 40 40 40 40 41 41 41 40 40 39 39 39
28 27 29 31 28 26 23 22 26 15 12 31 39 28 16 18 46 51 39 43 45 39 37 37 33 33 39 43 42 42 43 44 44 42 44 44 43 45 44 41 39 37 36 34 32 29 27 27 28 30 32 34 36 38 40 42 42 41 39 36 34 32 31 32 34 35 35 34 34 33 33 33 33 33 34 34 35 36 36 37 38 38 39 40 40 41 40 40 40 40 40 40 40 39 39 39 40
26 27 30 27 18 20 21 20 22 9 11 33 33 25 21 16 41 54 35 27 25 19 18 17 17 21 29 41 47 46 44 46 46 44 46 45 44 46 44 42 41 38 37 35 32 30 28 27 29 32 34 35 37 40 42 43 44 43 39 36 34 33 34 36 36 36 36 36 36 36 35 35 35 35 35 36 36 37 38 38 38 39 39 40 41 41 41 41 41 41 40 40 40 40 41 41 42
28 29 29 18 5 8 10 9 10 7 15 25 15 12 21 27 49 59 42 30 24 26 23 16 16 18 24 34 42 45 45 45 47 45 45 45 44 46 45 43 41 39 36 34 32 30 28 28 30 33 34 34 38 42 44 44 45 43 40 37 36 36 37 37 37 37 37 37 37 37 37 37 37 37 36 37 37 38 39 39 39 40 40 41 41 42 42 42 42 42 42 41 41 42 43 44 45
30 31 28 16 4 1 4 7 5 7 20 26 16 12 16 27 46 47 38 35 32 35 32 27 31 32 33 38 38 42 44 44 46 46 44 45 44 45 45 43 41 38 36 33 32 30 28 29 31 33 33 34 39 44 45 45 45 43 40 37 37 38 38 37 37 37 37 37 37 37 37 37 37 37 37 37 38 38 39 39 40 40 41 42 43 44 44 45 46 45 45 44 43 44 45 45 46
33 32 28 25 22 13 6 5 3 5 16 20 16 13 12 23 33 25 21 25 26 27 25 26 36 39 41 44 40 40 44 44 46 46 45 45 44 45 45 44 41 38 36 34 32 31 30 30 32 32 32 35 41 45 45 45 45 42 39 38 38 38 38 37 36 36 35 35 35 35 36 36 37 37 38 38 38 39 39 40 40 41 41 42 42 43 44 45 46 46 46 45 45 45 45 46 47
32 31 29 32 36 28 16 13 15 13 10 11 15 18 24 35 41 37 33 32 30 26 23 27 34 37 42 47 46 42 42 46 47 46 47 45 44 45 45 44 41 39 37 35 33 33 32 31 31 31 33 37 44 46 46 46 45 41 39 38 38 37 37 36 35 35 34 34 35 35 36 37 37 38 39 39 39 39 39 40 40 40 41 41 42 42 43 43 44 44 45 45 46 47 48 49 50
21 25 32 36 36 33 24 21 27 20 9 15 22 24 34 41 45 51 49 44 41 32 27 29 31 35 40 45 48 45 43 47 48 48 47 45 44 46 46 44 41 39 37 36 35 34 33 31 31 32 35 41 46 47 46 46 44 41 39 38 37 36 35 35 35 34 34 35 35 36 37 37 38 38 39 39 39 40 40 40 41 41 41 42 42 43 43 44 44 44 45 46 47 49 51 52 51
22 24 29 31 30 33 28 14 14 12 7 16 23 26 31 29 35 47 39 34 41 38 36 35 31 34 40 44 47 46 45 48 50 50 48 46 47 48 47 44 41 40 38 37 36 34 33 32 32 34 39 45 47 47 46 46 43 40 39 38 36 35 35 35 35 35 35 36 36 37 37 37 38 38 38 39 39 40 41 41 41 42 42 42 42 43 43 43 44 44 45 46 47 48 49 49 49
29 31 31 25 18 21 25 14 7 7 4 9 19 27 30 32 43 50 37 33 39 36 36 38 36 36 40 44 46 45 48 52 53 52 50 48 50 50 47 44 41 40 39 38 37 35 33 33 34 38 43 47 48 47 46 45 42 40 38 36 35 35 35 35 35 35 35 36 36 37 37 37 38 38 38 39 40 40 41 41 42 42 42 42 42 42 42 42 42 42 43 43 44 44 45 45 45
31 35 36 33 25 20 23 20 11 7 5 8 15 16 22 38 52 51 44 45 43 37 37 39 40 39 40 44 44 43 49 55 55 54 52 51 52 50 46 43 41 41 41 39 37 35 34 34 36 41 45 47 48 47 46 43 40 38 36 35 35 34 34 34 34 35 35 36 36 36 37 37 38 38 38 39 40 40 41 41 42 42 42 42 42 42 41 41 41 41 40 41 41 41 42 42 42
33 38 38 36 33 28 23 21 23 18 8 7 10 9 23 46 50 42 41 41 40 39 37 37 40 40 39 42 41 42 49 56 57 56 55 54 53 49 45 42 42 42 41 39 37 35 34 35 38 43 46 48 48 46 44 41 39 37 35 35 35 34 34 34 35 36 36 36 36 36 37 37 37 38 38 39 39 40 40 41 41 42 42 42 42 42 41 41 41 40 40 40 40 40 40 40 40
33 39 42 42 42 35 18 12 28 33 19 14 13 8 29 55 51 41 39 34 35 36 31 34 40 39 37 38 38 42 51 57 59 58 56 54 50 47 44 42 42 42 40 39 37 34 34 36 40 44 48 49 48 45 43 40 37 36 35 35 35 35 35 35 36 36 36 36 36 36 37 37 37 38 38 38 39 39 40 40 41 42 42 42 42 41 41 41 41 41 40 40 39 39 39 39 39
Wind_Direction
297 298 302 304 308 310 320 330 326 318 316 310 256 265 268 245 246 248 251 263 273 281 289 297 306 310 309 305 296 287 278 270 262 253 253 260 262 261 260 260 263 264 266 270 273 276 280 284 286 287 287 284 279 274 270 266 262 257 254 252 251 249 247 249 251 253 255 256 256 255 253 252 253 255 256 259 261 261 258 252 249 248 249 250 253 255 257 261 262 262 266 270 274 278 280 284 285
293 297 300 302 306 309 318 324 320 314 317 308 257 252 262 254 257 253 257 267 277 290 303 312 314 311 310 307 299 288 277 271 264 259 259 263 264 265 267 265 263 263 265 270 275 278 280 282 283 283 283 280 277 273 269 266 263 260 256 253 252 252 251 249 250 251 253 256 257 255 252 251 253 254 255 257 259 259 256 251 247 245 245 246 249 252 254 259 262 259 262 266 269 273 276 281 286
293 295 298 303 304 308 314 315 317 312 309 305 271 249 251 254 254 256 267 277 288 300 310 315 314 312 311 306 296 286 274 272 270 268 267 265 265 267 268 267 268 270 272 274 277 279 279 280 279 279 278 277 276 274 271 266 262 260 257 254 252 252 252 251 251 251 252 253 254 254 252 252 253 254 255 257 260 260 256 251 248 246 246 247 250 252 253 258 261 259 262 266 269 272 274 278 283
298 296 300 303 303 307 310 310 312 304 304 305 274 248 249 255 257 269 285 294 301 305 310 312 310 311 310 303 292 283 274 272 274 272 270 269 269 269 270 271 274 277 279 280 280 281 281 281 279 278 277 278 279 279 276 272 268 264 261 259 255 253 252 252 251 251 251 252 253 254 254 254 255 257 258 259 261 262 258 252 248 246 246 248 250 251 253 257 260 260 264 267 269 271 275 277 280
303 299 300 302 303 306 304 305 304 300 307 295 261 253 262 270 275 287 297 299 302 305 309 308 305 310 308 297 289 286 281 276 275 274 272 272 275 277 279 282 283 284 285 285 283 283 283 283 282 282 283 284 285 284 281 277 274 271 267 263 261 258 255 253 252 251 251 252 253 254 255 255 256 258 260 261 262 263 259 252 249 245 245 249 250 251 252 255 260 261 263 265 267 270 274 277 276
305 300 299 302 302 303 298 296 299 305 306 268 256 257 264 275 284 293 298 298 302 306 308 305 304 311 305 294 292 290 284 279 277 275 273 273 278 282 287 291 293 294 293 290 286 285 285 285 286 287 290 291 291 290 287 282 279 276 272 269 266 263 259 256 254 253 253 254 253 254 255 255 257 259 261 262 263 263 257 251 248 245 245 248 249 251 251 253 257 259 260 264 266 267 270 275 275
306 303 300 301 299 295 291 293 300 306 292 259 258 252 259 275 285 292 295 294 298 302 305 307 307 310 303 294 293 289 285 283 281 278 276 277 280 284 290 296 302 304 301 295 290 286 286 287 289 293 296 299 300 298 295 291 288 285 280 276 274 270 266 262 259 257 256 256 255 255 256 257 259 260 263 264 263 260 254 249 245 244 246 247 248 250 251 253 255 256 259 263 264 265 266 270 273
305 303 299 296 292 289 287 289 295 284 239 255 263 259 264 273 281 285 286 285 291 296 301 309 309 307 302 294 292 288 286 286 284 282 284 287 287 290 297 303 307 306 301 295 291 290 291 294 296 300 304 306 306 304 301 297 294 291 288 283 280 278 274 270 266 262 260 259 258 257 258 260 262 263 264 264 262 257 253 248 244 245 248 249 249 250 252 254 255 256 258 261 261 262 264 266 270
305 302 297 293 288 285 284 286 290 269 235 231 250 266 271 271 275 278 279 281 289 294 300 311 311 306 301 292 287 284 284 285 285 287 290 295 299 304 307 306 304 300 298 295 295 298 299 301 303 305 307 308 306 304 302 300 298 295 292 289 287 284 281 277 273 269 265 263 261 260 260 261 262 264 263 262 261 257 253 250 246 246 248 251 253 253 252 252 252 252 255 259 261 263 262 263 266
304 299 294 291 286 282 280 281 285 271 253 251 247 255 268 272 273 275 277 280 287 292 300 312 312 307 298 287 281 280 282 283 285 289 295 302 309 311 307 303 300 300 301 299 302 305 305 305 307 308 308 306 305 305 305 303 301 298 296 294 292 290 287 284 279 275 271 267 265 264 263 262 262 262 262 261 260 258 255 253 251 249 249 252 254 255 254 252 250 250 253 257 260 263 264 262 263
301 296 291 286 282 280 280 281 279 277 270 263 258 258 264 270 273 274 277 280 286 293 303 310 311 304 291 283 276 276 281 283 287 291 298 306 311 310 310 307 303 303 305 307 308 309 310 309 310 311 311 309 308 307 307 305 302 300 298 296 294 292 290 288 286 282 279 275 271 269 268 267 265 264 264 263 262 261 259 258 257 254 253 254 255 256 256 254 250 249 253 255 255 258 262 262 260
298 294 288 281 279 279 280 281 280 285 284 273 266 265 269 273 275 277 280 285 291 296 302 308 311 302 290 285 273 273 280 282 284 290 299 307 308 309 310 306 305 308 309 309 310 311 312 313 314 314 313 312 311 310 309 306 303 300 297 294 292 292 292 291 291 289 287 284 280 275 272 269 268 267 266 266 265 264 264 263 261 260 258 258 258 258 258 255 251 249 252 255 254 254 258 260 259
297 292 286 279 279 278 277 278 282 289 290 284 272 267 271 275 277 280 284 288 293 296 301 310 310 301 296 290 277 278 282 280 283 293 304 306 305 307 307 308 310 312 310 308 307 308 309 311 312 312 312 312 312 311 310 309 307 304 299 296 293 292 292 292 292 292 292 290 286 282 277 273 270 268 267 267 267 267 266 265 264 263 262 261 260 259 259 256 252 250 252 256 255 256 258 259 259
297 292 283 278 278 278 276 277 283 288 290 288 275 270 270 273 276 279 284 288 292 295 301 308 306 301 298 290 285 289 285 284 292 302 306 305 306 308 309 308 309 308 306 304 303 304 305 306 306 306 306 305 307 307 306 307 306 306 303 300 297 295 294 293 293 292 292 291 289 287 285 283 280 277 274 272 270 269 268 268 267 266 264 263 262 261 260 258 254 251 252 255 255 257 259 259 259
296 289 280 275 275 276 275 277 281 284 289 286 270 269 265 267 272 275 281 286 289 292 296 301 302 301 297 291 296 294 285 284 292 301 302 302 302 302 304 302 301 303 303 303 303 305 306 303 300 299 299 298 298 299 298 299 299 300 300 300 298 297 295 293 292 290 289 286 285 285 286 286 286 285 282 279 276 273 271 270 269 268 267 265 264 263 263 261 258 254 252 253 255 257 257 259 260
290 283 276 272 274 276 275 277 279 280 284 281 271 275 272 269 273 275 280 284 286 289 293 298 303 303 297 296 295 284 278 278 285 293 289 291 296 294 293 294 296 298 299 300 302 303 302 300 298 294 292 292 292 292 291 291 291 291 291 291 290 290 290 289 288 287 285 283 282 282 282 282 282 281 281 281 280 279 278 276 274 272 270 268 267 265 264 263 261 259 255 252 253 255 256 257 258
284 277 271 270 273 275 276 277 279 278 274 272 281 291 287 281 281 280 282 283 285 288 291 295 302 303 296 294 285 276 276 278 284 285 273 283 291 286 281 283 287 290 293 295 297 298 298 296 294 292 290 289 288 287 287 287 286 286 286 284 283 283 282 282 282 281 282 281 282 281 280 279 277 277 276 277 277 279 280 279 278 275 273 271 270 269 267 265 264 262 259 256 254 254 253 253 255
277 273 271 269 272 275 278 280 278 274 267 262 270 283 288 285 284 283 283 283 285 286 288 292 298 300 292 287 278 273 274 278 284 285 283 288 288 283 278 278 282 285 287 289 291 292 292 292 290 289 288 287 286 284 283 283 283 283 283 281 280 280 278 277 277 277 278 278 279 279 279 278 278 277 275 274 274 273 274 274 274 273 273 272 272 271 270 269 267 265 262 260 257 254 254 254 254
274 273 271 268 273 277 280 280 274 270 265 257 256 267 277 279 279 279 278 278 279 280 282 287 293 294 285 280 276 275 278 281 285 288 292 292 288 283 282 283 284 284 285 285 285 285 286 286 287 287 285 282 280 279 278 277 277 278 277 276 276 275 274 273 273 272 272 273 274 275 275 275 275 274 274 274 273 272 271 270 270 270 270 270 270 270 270 270 270 268 266 263 260 256 256 256 252
271 269 266 269 278 279 276 274 269 267 265 256 252 260 267 269 273 273 273 274 274 275 279 284 287 285 276 273 275 280 283 284 285 288 291 291 288 285 285 286 285 286 287 286 284 284 283 281 283 284 283 280 275 273 272 271 271 272 271 270 269 269 269 268 268 267 267 267 268 268 268 269 270 269 270 270 271 271 270 270 269 268 268 267 267 266 267 268 269 269 269 267 263 259 256 253 247
267 262 264 273 279 275 272 269 267 265 263 258 254 258 263 267 270 269 269 273 274 276 280 283 281 275 266 267 274 277 277 278 281 284 286 285 285 284 282 282 282 285 285 285 285 284 283 281 281 282 283 282 280 276 273 270 269 268 268 268 268 267 267 266 266 266 265 264 264 264 264 264 265 265 266 266 267 267 267 267 268 269 268 268 267 266 266 266 266 267 267 267 265 263 259 254 249
264 262 265 272 273 272 272 269 266 264 262 260 257 259 263 267 267 265 265 270 278 282 281 281 277 271 263 260 264 267 270 273 277 279 279 279 279 277 275 275 277 279 280 281 282 282 280 280 280 281 281 282 282 281 279 276 273 271 270 269 269 268 268 268 267 267 267 266 265 264 265 265 265 265 265 264 264 265 265 265 264 265 266 268 269 269 267 266 265 264 265 265 264 264 261 258 254
264 265 266 269 270 272 273 270 267 263 261 261 261 262 263 266 266 265 266 270 279 283 281 280 276 268 262 257 255 259 266 271 274 273 271 271 270 270 270 272 273 275 277 277 276 275 276 277 277 278 278 280 281 281 280 279 278 276 275 274 272 271 270 270 269 268 268 268 268 267 266 267 267 267 267 266 266 266 266 265 264 263 264 264 265 266 265 264 263 262 262 262 262 262 262 261 258
263 265 267 270 270 271 272 272 269 265 263 262 266 267 263 265 268 270 270 272 279 282 284 282 273 263 258 258 258 261 265 267 266 263 262 263 264 266 269 272 274 276 275 272 271 272 273 275 276 277 278 280 280 280 280 279 279 278 278 277 276 275 273 272 271 270 270 271 271 269 268 267 268 269 270 270 269 269 268 268 267 266 266 265 265 265 263 261 260 259 258 258 259 259 260 260 259
257 262 270 272 270 268 268 267 266 265 264 266 271 270 264 266 271 273 272 273 281 286 285 275 269 264 258 259 262 262 261 259 257 255 257 260 262 266 270 272 275 274 271 270 272 275 277 278 279 280 280 280 280 279 278 277 277 277 277 278 278 278 276 274 274 274 273 272 270 269 268 268 268 269 271 272 271 271 270 270 270 270 270 269 268 267 266 264 262 260 259 258 258 258 259 259 260
255 263 270 270 270 270 267 264 265 265 264 266 269 268 267 269 272 273 272 273 284 292 282 267 266 264 258 258 260 258 255 252 253 254 257 261 264 268 270 273 274 271 271 274 279 283 286 286 284 282 279 277 277 276 276 276 277 277 278 278 279 279 278 277 276 276 275 273 272 271 271 271 271 272 273 273 273 272 271 271 271 270 271 271 271 270 269 268 267 266 264 262 261 260 259 260 261
261 266 268 267 268 270 269 267 266 264 264 265 266 269 271 271 270 270 269 273 286 292 272 259 257 258 256 254 252 252 252 250 253 257 263 267 270 271 270 271 271 271 275 280 284 288 291 290 286 282 278 276 275 276 277 278 279 280 281 282 282 282 281 281 279 279 279 278 277 277 275 275 274 275 274 274 274 274 273 272 272 271 271 271 272 272 271 271 270 269 268 267 265 264 262 261 262
266 268 268 267 266 268 267 265 263 261 265 267 267 272 272 268 268 268 269 277 289 288 266 253 251 254 255 250 246 247 250 253 260 265 271 273 273 271 271 271 272 276 280 284 288 290 289 286 284 283 283 282 280 280 280 281 281 282 283 284 286 286 286 285 284 284 283 282 281 280 279 278 277 277 276 275 275 276 276 276 275 274 273 272 272 272 273 274 273 273 272 271 269 267 267 266 267
265 265 268 269 268 267 264 263 264 263 266 267 269 273 270 266 267 270 273 281 289 283 260 251 251 253 253 251 248 245 249 258 264 269 273 274 275 274 276 278 280 283 285 289 291 289 283 280 282 285 286 285 284 283 283 283 282 283 283 285 287 289 290 290 289 288 288 288 287 285 283 282 282 281 281 280 278 278 278 279 278 277 276 275 274 273 272 272 273 274 274 273 272 270 269 268 268
262 263 266 269 269 267 264 264 266 266 267 268 268 270 269 269 271 274 275 280 284 275 255 251 250 248 250 254 253 248 253 262 265 270 274 274 277 279 281 282 283 285 287 290 290 283 276 277 282 285 286 286 285 284 284 284 283 283 284 285 287 289 290 290 289 289 289 290 290 289 287 285 285 285 285 284 283 282 280 281 281 280 279 278 276 274 272 271 271 271 271 270 269 269 269 263 259
260 263 261 261 264 267 268 267 267 266 268 268 264 267 271 274 276 276 279 281 277 262 251 252 252 250 253 257 256 253 257 264 268 276 279 277 276 277 279 280 282 283 286 290 286 276 272 278 284 285 286 286 285 285 284 285 286 286 286 287 288 287 288 288 288 289 289 290 290 290 289 287 286 286 286 286 285 285 283 281 280 281 281 281 279 278 276 276 275 273 272 270 266 266 270 264 255
256 257 258 255 257 264 269 269 269 269 272 274 265 266 272 277 278 279 281 278 267 257 256 258 259 255 254 254 253 256 261 266 273 282 283 280 277 275 275 276 279 281 286 289 282 271 272 280 284 284 283 283 286 287 287 288 288 288 289 289 288 289 289 289 291 292 292 292 292 291 290 290 289 288 287 287 286 286 286 284 281 281 281 281 281 281 281 280 279 277 276 274 269 264 262 260 256
249 248 254 256 257 262 268 270 270 272 277 279 270 267 273 279 281 277 276 275 266 266 271 267 265 259 250 249 251 257 264 269 277 281 281 281 279 276 273 273 276 280 286 286 275 270 276 282 284 282 280 282 286 288 289 290 290 290 290 290 290 291 291 292 294 295 296 296 295 294 293 293 292 291 290 289 288 288 287 287 286 285 283 282 282 282 282 281 281 280 279 277 274 267 258 258 259
243 243 251 256 259 261 265 269 273 276 282 283 272 267 272 277 278 269 266 271 268 270 276 272 267 263 254 254 259 264 269 272 277 277 276 277 277 275 272 272 275 279 284 279 268 268 277 281 281 279 280 283 285 287 290 291 291 292 292 292 292 293 294 295 296 296 296 296 295 295 294 294 294 293 293 292 291 290 289 289 289 289 288 287 286 284 283 283 284 283 281 278 276 272 267 265 265
244 244 252 258 261 262 265 270 276 282 285 280 267 262 267 269 270 263 256 264 267 268 273 271 266 263 262 263 267 269 272 275 274 271 269 269 270 271 270 271 273 277 281 274 263 265 273 275 274 275 278 280 283 287 289 289 290 291 292 292 293 294 295 296 296 296 296 295 295 295 295 295 294 294 294 293 293 292 291 291 290 290 291 291 290 288 287 286 287 286 285 282 279 277 274 272 271
252 255 260 265 266 268 270 274 279 283 283 275 264 262 264 263 262 260 253 254 263 265 266 265 261 259 260 263 267 268 270 271 269 267 265 263 265 265 266 268 270 274 278 271 261 263 268 268 270 274 278 279 285 289 288 289 291 292 293 294 295 296 296 296 297 296 296 296 295 295 295 295 295 295 295 295 294 294 293 293 292 292 292 292 292 291 290 289 288 286 285 284 282 280 277 275 273
257 261 263 267 269 271 273 276 277 278 277 274 270 267 266 263 262 261 257 253 255 259 260 257 254 254 259 264 269 270 269 266 263 265 265 262 262 262 262 264 266 270 274 268 259 262 266 267 270 275 279 283 289 290 288 290 292 294 295 296 296 296 297 297 297 297 296 296 295 294 294 294 294 294 295 294 294 293 293 293 293 293 293 293 293 292 291 290 289 287 285 283 282 281 279 277 275
256 258 262 266 268 271 274 275 274 276 276 275 276 274 271 268 265 263 260 255 251 253 257 256 255 258 264 269 270 270 268 263 260 261 262 260 260 259 259 260 262 266 270 266 257 259 263 265 270 275 279 285 288 287 288 291 292 294 295 295 296 295 296 297 296 296 295 294 293 292 291 291 291 291 291 292 292 292 293 293 293 293 293 293 293 292 291 290 289 288 286 284 282 281 279 277 277
255 256 260 264 265 271 275 274 274 277 276 278 281 280 277 274 269 265 261 257 254 254 259 261 262 264 267 270 271 270 269 265 263 262 257 256 257 257 256 257 259 262 266 263 255 257 260 263 269 273 278 284 286 286 288 291 293 295 295 295 296 296 296 296 295 293 292 290 289 288 288 288 288 288 288 288 289 290 291 291 291 292 292 291 292 292 292 292 291 289 288 286 284 282 280 278 276
254 254 256 260 263 269 274 276 280 280 276 277 279 280 279 277 272 266 261 257 256 256 259 261 263 266 268 270 269 270 270 268 266 263 255 252 253 254 254 255 257 259 262 260 252 253 256 260 266 271 278 283 285 286 289 293 296 296 295 296 296 297 298 297 296 294 292 290 290 290 290 289 288 288 288 288 288 289 289 289 290 290 291 291 291 291 291 291 291 290 289 287 285 283 281 279 277
254 254 254 258 263 265 270 278 281 278 274 273 275 280 279 277 274 271 268 263 260 259 260 261 263 266 267 265 264 266 268 267 265 261 256 254 253 251 251 252 254 256 259 257 250 250 253 256 263 270 278 283 284 287 293 297 297 295 294 296 297 299 300 299 298 296 294 292 292 292 291 289 288 287 287 287 288 288 289 289 289 289 289 289 289 289 289 290 289 289 288 287 286 285 283 282 280
256 258 258 261 265 265 268 274 275 274 274 273 275 279 278 279 277 277 277 273 269 266 264 263 261 260 258 255 258 262 264 263 260 256 254 254 253 249 248 249 250 252 254 254 248 247 251 255 262 270 278 284 286 290 297 298 296 296 297 298 300 301 301 299 297 294 291 290 289 288 287 286 285 285 286 286 287 287 288 288 288 288 288 288 289 289 290 290 290 290 289 289 288 288 287 286 285
257 262 266 267 268 267 268 269 265 263 269 273 270 258 274 282 279 276 275 270 271 267 262 263 253 244 244 245 252 259 260 258 253 249 248 249 249 248 247 246 246 247 249 250 245 246 250 255 263 272 281 286 289 294 299 299 299 299 300 301 302 302 302 299 296 293 291 290 289 289 288 288 287 287 288 288 289 289 289 290 290 291 291 292 293 293 293 292 292 292 292 292 292 291 290 289 287
257 265 269 272 271 269 270 268 261 260 265 271 268 258 267 278 276 274 271 265 266 261 255 260 246 229 230 238 249 258 263 264 255 246 244 244 244 245 244 243 242 243 246 245 243 245 251 257 267 275 283 288 291 296 299 300 303 303 304 305 305 305 303 301 298 296 296 296 296 295 294 293 292 292 292 292 292 293 294 294 295 296 296 297 296 296 295 295 294 294 294 293 294 293 293 292 291
263 269 269 273 275 273 274 270 262 262 268 269 263 254 255 274 274 275 275 269 269 264 260 260 243 225 229 244 257 261 261 263 258 247 242 242 242 241 240 239 239 241 244 242 242 246 252 261 270 277 284 287 290 294 298 302 305 306 308 309 309 307 305 303 302 301 301 301 300 299 297 296 295 295 296 296 297 297 298 299 299 300 299 299 298 297 297 296 295 295 295 295 295 295 295 295 295
268 270 264 266 269 270 274 268 255 257 263 262 259 245 235 271 274 272 269 268 270 271 271 270 254 236 238 247 259 263 258 256 254 245 239 240 240 238 237 236 237 239 241 240 242 248 255 263 270 276 282 285 289 293 298 303 308 310 311 312 311 309 308 307 306 306 305 304 303 302 301 300 299 299 299 300 300 300 301 301 301 300 300 299 298 297 296 296 295 294 294 295 295 296 296 296 296
270 268 260 260 262 262 261 253 249 253 256 256 255 243 225 267 276 269 261 265 275 281 280 279 269 249 242 244 249 255 254 253 250 241 235 236 236 235 234 234 237 238 239 240 244 249 255 261 268 274 279 283 289 295 300 305 310 313 313 312 311 310 309 309 309 308 308 307 306 306 305 304 303 302 301 300 300 299 299 298 298 298 298 297 296 296 295 294 293 292 292 293 294 294 294 294 294
260 260 259 264 265 256 251 246 246 237 248 257 258 247 224 231 269 271 268 272 281 287 279 272 268 255 243 242 244 245 246 248 248 239 232 232 233 233 232 233 236 237 239 241 244 249 253 259 265 271 277 283 290 297 301 306 312 314 313 312 310 310 310 310 310 310 310 309 309 308 307 305 303 302 300 299 298 297 296 295 295 295 294 295 295 294 294 292 291 290 290 290 290 291 291 292 293
251 250 252 258 263 247 242 234 238 222 247 263 268 240 220 232 263 271 269 265 266 271 268 250 249 255 251 248 241 238 239 241 243 237 231 230 231 232 232 234 236 237 239 241 244 249 252 257 263 269 276 283 291 298 302 307 313 314 312 310 310 310 310 310 310 310 309 309 308 307 306 305 304 302 301 299 298 297 296 295 294 293 292 292 292 291 290 289 288 287 286 287 288 290 291 291 291
250 246 241 235 213 252 239 228 239 245 254 259 253 232 227 246 266 274 271 265 268 273 272 261 258 256 256 259 250 238 237 238 238 234 229 229 230 231 232 234 236 237 240 242 245 249 252 258 264 270 279 286 293 300 303 307 312 312 309 308 308 309 309 309 308 307 307 306 305 305 305 304 304 303 302 301 300 299 298 296 295 294 292 291 290 289 289 288 287 286 285 286 288 290 292 290 289
256 254 244 233 227 226 238 234 197 240 260 258 240 226 225 240 257 276 285 283 283 278 270 259 258 255 253 258 255 242 236 234 234 229 225 227 229 232 234 235 236 238 240 242 244 249 254 261 266 273 283 289 295 300 303 307 311 309 306 306 306 307 307 306 305 304 304 303 303 303 303 303 303 303 302 301 300 299 298 297 296 295 293 292 291 291 291 291 290 288 286 286 288 289 290 289 288
256 252 238 230 231 233 245 254 246 249 272 260 228 225 240 250 260 267 272 279 281 274 264 253 254 254 250 249 251 245 235 232 230 225 223 226 229 234 235 235 236 237 239 241 245 250 257 263 269 277 286 291 296 300 302 306 309 306 305 305 305 305 304 303 303 302 302 302 302 303 303 303 303 302 301 301 300 299 298 297 296 295 295 294 294 294 294 294 294 293 291 289 289 289 289 289 289
255 240 231 236 240 241 243 254 256 257 273 263 247 245 255 263 271 269 265 267 267 262 260 257 253 252 246 242 244 244 236 231 228 224 224 227 233 235 234 233 235 237 238 242 247 252 258 264 271 280 287 292 296 299 301 305 307 304 304 304 303 303 302 302 302 302 302 303 303 303 303 303 302 302 301 300 299 298 297 297 296 296 296 295 295 294 294 294 294 293 292 291 289 289 289 289 290
253 242 243 248 246 243 240 248 262 249 244 262 254 253 259 261 270 273 269 265 264 261 259 257 253 250 244 236 238 240 235 228 225 223 224 229 233 232 231 232 234 236 239 243 248 253 258 265 273 282 288 293 296 298 301 305 305 303 303 302 301 301 301 302 302 303 303 304 304 304 303 302 301 301 300 299 298 297 296 296 296 296 296 295 295 294 293 293 293 292 291 290 290 289 290 290 290
250 251 254 248 237 238 234 228 255 247 233 267 255 252 255 251 259 267 268 268 271 268 261 254 250 250 243 234 234 235 231 224 220 222 224 228 231 228 227 229 232 237 240 244 249 253 259 267 276 284 289 293 295 298 302 304 303 302 301 301 300 301 302 303 303 303 303 303 303 302 302 301 300 299 298 297 296 296 296 296 296 296 296 295 295 294 294 293 293 293 292 292 292 291 291 291 290
245 246 246 243 240 241 234 225 230 249 243 257 260 258 255 255 260 265 267 270 272 267 262 257 253 252 243 234 234 233 227 221 218 220 224 227 227 225 224 227 232 237 241 245 249 254 261 270 278 285 290 293 295 299 302 302 301 301 300 300 301 302 302 302 302 302 302 302 301 301 301 300 299 298 297 296 296 296 296 296 296 296 296 296 296 296 295 295 295 294 294 293 293 293 293 293 292
242 237 236 239 239 238 244 238 232 238 245 255 264 262 260 264 268 269 268 272 272 268 266 261 256 253 243 236 237 232 224 219 217 219 222 223 223 221 222 226 232 237 240 244 249 255 264 273 280 285 290 293 296 299 301 300 300 300 300 301 302 302 302 302 302 302 301 301 301 300 300 299 298 297 296 296 296 296 296 296 296 296 296 296 297 297 297 297 297 296 295 295 294 294 293 293 293
248 243 241 242 237 231 241 249 236 236 231 238 251 252 265 269 270 269 270 273 274 272 266 258 255 251 242 237 237 230 222 218 218 218 219 219 218 218 221 226 232 236 240 244 250 259 269 276 282 287 291 294 297 299 299 299 299 299 300 302 302 302 302 302 302 302 301 301 300 299 298 298 297 296 296 296 296 296 297 297 296 296 297 297 297 297 297 297 297 297 297 296 295 294 293 292 292